Content
SEND FEEDBACK

Spain Flag

PALMA, SPAIN


Home > Europe > Spain
Elevation: 26 feet     Latitude: 39 33N     Longitude: 002 44E

WEATHER
 
SELECT A DAY
Number of Records: 341,586;   Date Range: 7/1/96 - 3/22/16
 
SHARE

PRINT THIS DATA

[ ← Previous Day ]
WEATHER ALMANAC - JANUARY 2, 2013
[ Next Day → ]
[ °C ]   °F
Weather ElementAverageHighLow
Temperature48.3 °F57.2 °F (2:30 pm)41 °F (6:00 am)
Dewpoint43 °F48.2 °F (10:00 am)39 °F (1:00 am)
Humidity82.6 %100 % (6:00 am)48 % (1:00 pm)
Barometer30.18 in30.33 in (10:30 pm)30.09 in (12:30 am)
Wind Speed4.6 mph17.3 mph (1:30 pm)
Wind Gust25.3 mph (10:30 pm)
Weather ElementAverage
Visibility6.7 mi
Wind DirectionNNE (35.3 °)

Weather ElementTotal
Precipitation---
Heating Degree Days15.9 (Base 65)
Averaged from 50 records on January 2, 2013
WEATHER CONDITIONS BREAKOUT
WIND DIRECTION BREAKOUT
WEATHER BY HOUR - JANUARY 2, 2013
[ °C ]   °F
Local TimeTemperatureDewpointHumidityBarometerVisibilityWind DirectionWind SpeedGust SpeedPrecipitationEventsConditions
12:30 AM46.4 °F42.8 °F87 %30.09 in6.2 miNE (40°)2.3 mphPartly Cloudy
1:00 AM43.0 °F39.0 °F81 %30.12 in12.0 miCalmScattered Clouds
1:00 AM44.6 °F42.8 °F93 %30.09 in6.2 miNE (40°)1.2 mphPartly Cloudy
1:30 AM44.6 °F42.8 °F93 %30.09 in6.2 miCalmPartly Cloudy
2:00 AM42.8 °F41.0 °F93 %30.09 in6.2 miCalmPartly Cloudy
2:30 AM44.6 °F42.8 °F93 %30.09 in6.2 miCalmPartly Cloudy
3:00 AM42.8 °F41.0 °F93 %30.12 in6.2 miENE (70°)1.2 mphPartly Cloudy
3:30 AM44.6 °F42.8 °F93 %30.12 in6.2 miCalmPartly Cloudy
4:00 AM44.6 °F42.8 °F93 %30.12 in6.2 miCalmPartly Cloudy
4:30 AM44.6 °F42.8 °F93 %30.12 in6.2 miCalmPartly Cloudy
5:00 AM42.8 °F41.0 °F93 %30.12 in6.2 miVariable1.2 mphPartly Cloudy
5:30 AM42.8 °F41.0 °F93 %30.12 in6.2 miCalmPartly Cloudy
6:00 AM41.0 °F41.0 °F100 %30.12 in6.2 miCalmPartly Cloudy
6:30 AM42.8 °F41.0 °F93 %30.12 in6.2 miCalmPartly Cloudy
7:00 AM41.0 °F39.0 °F90 %30.14 in12.0 miCalmScattered Clouds
7:00 AM42.8 °F41.0 °F93 %30.12 in6.2 miCalmPartly Cloudy
7:30 AM41.0 °F41.0 °F100 %30.12 in6.2 miCalmPartly Cloudy
8:00 AM42.8 °F41.0 °F93 %30.15 in6.2 miCalmPartly Cloudy
8:30 AM41.0 °F39.2 °F93 %30.15 in6.2 miCalmPartly Cloudy
9:00 AM44.6 °F42.8 °F93 %30.15 in6.2 miNE (50°)2.3 mphPartly Cloudy
9:30 AM44.6 °F44.6 °F100 %30.18 in6.2 miNE (40°)1.2 mphPartly Cloudy
10:00 AM50.0 °F48.2 °F94 %30.18 in6.2 miVariable1.2 mphPartly Cloudy
10:30 AM51.8 °F46.4 °F82 %30.18 in6.2 miENE (70°)12.7 mphScattered Clouds
11:00 AM53.6 °F46.4 °F77 %30.21 in6.2 miENE (70°)16.1 mphScattered Clouds
11:30 AM53.6 °F46.4 °F77 %30.21 in6.2 miENE (70°)12.7 mphMostly Cloudy
12:00 PM55.4 °F44.6 °F67 %30.21 in6.2 miENE (60°)13.8 mphMostly Cloudy
1:00 PM55.0 °F41.0 °F48 %30.20 in16.0 miENE (70°)15.0 mphMostly Cloudy
1:00 PM55.4 °F44.6 °F67 %30.18 in6.2 miENE (60°)15.0 mphMostly Cloudy
1:30 PM55.4 °F44.6 °F67 %30.18 in6.2 miNE (50°)17.3 mphMostly Cloudy
2:00 PM55.4 °F44.6 °F67 %30.18 in6.2 miENE (70°)10.4 mphMostly Cloudy
2:30 PM57.2 °F44.6 °F63 %30.18 in6.2 miEast (80°)11.5 mphMostly Cloudy
3:00 PM57.2 °F44.6 °F63 %30.18 in6.2 miENE (60°)10.4 mphMostly Cloudy
3:30 PM57.2 °F44.6 °F63 %30.18 in6.2 miEast (80°)8.1 mphMostly Cloudy
4:00 PM57.2 °F42.8 °F59 %30.18 in6.2 miENE (60°)11.5 mphScattered Clouds
4:30 PM57.2 °F44.6 °F63 %30.18 in6.2 miENE (70°)6.9 mphScattered Clouds
5:00 PM55.4 °F44.6 °F67 %30.21 in6.2 miENE (70°)8.1 mphScattered Clouds
5:30 PM53.6 °F44.6 °F72 %30.21 in6.2 miNE (50°)2.3 mphScattered Clouds
6:00 PM51.8 °F44.6 °F76 %30.21 in6.2 miNE (40°)4.6 mphScattered Clouds
6:30 PM51.8 °F44.6 °F76 %30.24 in6.2 miVariable1.2 mphScattered Clouds
7:00 PM49.0 °F41.0 °F66 %30.26 in12.0 miCalmScattered Clouds
7:00 PM50.0 °F44.6 °F82 %30.24 in6.2 miCalmPartly Cloudy
7:30 PM50.0 °F44.6 °F82 %30.27 in6.2 miENE (70°)1.2 mphScattered Clouds
8:00 PM48.2 °F42.8 °F82 %30.27 in6.2 miCalmPartly Cloudy
8:30 PM46.4 °F42.8 °F87 %30.27 in6.2 miCalmPartly Cloudy
9:00 PM44.6 °F41.0 °F87 %30.27 in6.2 miENE (70°)1.2 mphPartly Cloudy
9:30 PM42.8 °F41.0 °F93 %30.27 in6.2 miNE (40°)2.3 mphPartly Cloudy
10:00 PM44.6 °F44.6 °F100 %30.30 in6.2 miENE (60°)8.1 mphRainLight Rain
10:30 PM48.2 °F44.6 °F87 %30.33 in6.2 miENE (60°)12.7 mph25.3 mphRainLight Rain
11:00 PM48.2 °F42.8 °F82 %30.33 in6.2 miNE (40°)11.5 mphScattered Clouds
11:30 PM48.2 °F42.8 °F82 %30.33 in6.2 miNE (50°)4.6 mphPartly Cloudy
Hourly data recorded from LEPA, located miles away from Palma, Spain




STORIES FROM OUR PARTNERS